#timestamp,LO_Frequency,Hit,StdDev 
1696957215.9,286046998.9,N
1696957235.7,286046998.7,N
1696957255.6,286046998.5,N
1696957275.4,286046998.1,N
1696957295.3,286047000.7,N
1696957315.1,286046998.6,N
1696957316.0,286046998.6,N
1696957335.8,286046998.6,N
1696957355.7,286046998.1,N
1696957375.5,286047001.2,N
1696957395.4,286047000.9,N
1696957415.2,286047001.0,N
1696957435.0,286047000.6,N
1696957435.9,286047000.6,N
1696957455.8,286047000.7,N
1696957475.6,286047000.6,N
1696957495.4,286047000.5,N
1696957515.3,286047000.5,N
1696957535.1,286047001.0,N
1696957555.9,286047000.3,N
1696957575.7,286047000.0,N
1696957595.5,286046998.4,N
1696957615.4,286046998.6,N
1696957635.2,286046998.7,N
1696957655.1,286046998.2,N
1696957656.0,286046998.2,N
1696957675.8,286046998.2,N
1696957695.6,286047000.9,N
1696957715.5,286046999.9,N
1696957735.3,286046999.8,N
1696957755.1,286047000.3,N
1696957775.9,286047000.1,N
1696957795.7,286047001.0,N
1696957815.6,286046998.6,N
1696957835.4,286046998.5,N
1696957855.2,286047000.8,N
1696957875.1,286046999.3,N
1696957876.0,286046999.3,N
1696957895.8,286046996.8,Y
1696957915.7,286046996.7,P
1696957935.5,286046999.4,N
1696957955.3,286046999.0,N
1696957975.2,286046999.3,N
1696957995.0,286046998.5,N
1696957995.9,286046998.5,N
1696958015.8,286046999.0,N
1696958035.6,286046996.9,Y
1696958055.4,286046998.2,P
1696958075.3,286046998.7,P
1696958095.1,286047000.8,P
1696958115.9,286047000.8,N
1696958135.7,286047000.7,N
1696958155.5,286047001.0,N
1696958175.4,286047000.5,N
1696958195.2,286047002.8,N
1696958215.0,286047001.9,N
1696958216.0,286047001.9,N
1696958235.8,286047003.9,N
1696958255.6,286047004.0,N
1696958275.5,286047001.3,N
1696958295.3,286047001.7,N
1696958315.1,286047001.3,N
1696958335.9,286047001.7,N
1696958355.7,286047004.0,N
1696958375.6,286047003.6,N
1696958395.4,286047006.0,Y
1696958415.2,286047004.2,P
1696958435.1,286047004.2,P
1696958436.0,286047004.2,P
1696958455.8,286047004.0,Y
1696958475.7,286047000.5,P
1696958495.5,286046999.9,N
1696958515.3,286047000.1,N
1696958535.2,286047002.4,N
1696958555.0,286047002.8,N
1696958555.9,286047002.8,N
1696958575.8,286047000.8,N
1696958595.6,286047000.2,N
1696958615.4,286046999.7,N
1696958635.3,286046999.8,N
1696958655.1,286047001.5,N
1696958675.8,286047001.8,N
1696958695.7,286047003.2,N
1696958715.5,286047001.3,N
1696958735.4,286047002.1,N
1696958755.2,286047001.7,N
1696958775.0,286047004.4,Y
1696958775.9,286047004.4,P
1696958795.8,286046999.7,N
1696958815.6,286046999.9,N
1696958835.5,286047002.7,N
1696958855.3,286047000.1,N
1696958875.1,286047002.0,N
1696958895.9,286047002.2,N
1696958915.7,286047001.4,N
1696958935.5,286047002.5,N
1696958955.4,286047001.3,N
1696958975.2,286047004.0,N
1696958995.0,286047004.0,N
1696958996.0,286047004.0,N
1696959015.8,286047003.4,N
1696959035.6,286047003.8,N
1696959055.5,286047003.8,N
1696959075.3,286047003.7,N
1696959095.1,286047001.4,N
1696959115.9,286047001.3,N
1696959135.7,286047004.0,N
1696959155.5,286047004.1,N
1696959175.4,286047003.8,N
1696959195.2,286047004.2,N
1696959215.1,286047003.7,N
1696959216.0,286047003.7,N
1696959235.8,286047003.1,N
1696959255.6,286047003.1,N
1696959275.5,286047004.1,N
1696959295.3,286047004.1,N
1696959315.2,286047003.9,N
1696959335.9,286047001.9,N
1696959355.7,286047004.1,N
1696959375.6,286047004.3,Y
1696959395.4,286047001.2,P
1696959415.2,286047001.2,N
1696959435.1,286047000.4,N
1696959436.0,286047000.4,N
1696959455.8,286046999.9,N
1696959475.7,286047000.1,N
1696959495.5,286047000.0,N
1696959515.3,286047000.3,N
1696959535.2,286047000.6,N
1696959555.0,286047000.8,N
1696959555.9,286047000.8,N
1696959575.7,286047001.2,N
1696959595.6,286047000.5,N
1696959615.4,286047000.1,N
1696959635.3,286047000.0,N
1696959655.1,286047000.6,N
1696959656.0,286047000.6,N
1696959675.8,286047000.1,N
1696959695.7,286047000.2,N
1696959715.5,286047002.0,N
1696959735.3,286047001.6,N
1696959755.2,286047002.6,Y
1696959775.0,286047000.6,P
1696959775.9,286047000.6,P
1696959795.8,286047000.8,P
1696959815.6,286046999.9,N
1696959835.4,286047000.9,N
1696959855.3,286047000.7,N
1696959875.1,286047000.2,N
1696959895.9,286046999.7,N
1696959915.7,286047002.4,Y
1696959935.5,286047002.8,P
1696959955.4,286047000.3,N
1696959975.2,286046999.9,N
1696959995.1,286047000.2,N
1696959996.0,286047000.2,N
1696960015.8,286047000.3,N
1696960035.6,286047002.3,N
1696960055.5,286047002.8,N
1696960075.3,286047002.6,N
1696960095.2,286047002.0,N
1696960115.9,286047002.2,N
1696960135.7,286047001.8,N
1696960155.6,286047001.3,N
1696960175.4,286047001.4,N
1696960195.2,286047002.0,N
1696960215.1,286047000.3,N
1696960216.0,286047000.3,N
1696960235.8,286047000.4,N
1696960255.7,286047001.1,N
1696960275.5,286047000.2,N
1696960295.3,286047002.7,N
1696960315.2,286047000.8,N
1696960335.0,286047000.7,N
1696960335.9,286047000.7,N
1696960355.8,286047000.7,N
1696960375.6,286047001.2,N
1696960395.4,286047001.2,N
1696960415.3,286047000.9,N
1696960435.1,286047002.7,N
1696960455.8,286047002.4,N
1696960475.7,286046999.9,N
1696960495.5,286047000.0,N
1696960515.4,286047002.2,N
1696960535.2,286047002.7,N
1696960555.0,286047000.3,N
1696960555.9,286047000.3,N
1696960575.8,286046998.1,N
1696960595.6,286047000.9,N
1696960615.5,286047001.0,N
1696960635.3,286047001.2,N
1696960655.1,286046998.1,N
1696960675.9,286047001.0,N
1696960695.7,286047001.0,N
1696960715.5,286047000.4,N
1696960735.4,286046999.7,N
1696960755.2,286047002.7,N
1696960775.1,286047002.7,N
1696960776.0,286047002.7,N
1696960795.8,286047002.0,N
